Location: Marstown
(39.5056°N, 77.0820°W)
Time: 19:07:35
(UTC-04:00)

Hubble Space Telescope - Visible Passes

Search period start: 23 June 2024 00:00
Search period end: 03 July 2024 00:00
Orbit: 510 x 514 km, 28.5° (Epoch: 23 June)

Date Brightness Start Highest point End Pass type
(mag) Time Alt. Az. Time Alt. Az. Time Alt. Az.
28 Jun 2.9 05:00:52 10° SSW 05:02:35 12° SSE 05:04:18 10° SE visible
29 Jun 2.8 04:41:39 11° SSW 04:43:20 13° S 04:45:18 10° SE visible
30 Jun 2.6 04:23:24 13° S 04:24:06 14° S 04:26:12 10° SE visible
01 Jul 2.6 04:05:11 15° SSE 04:05:11 15° SSE 04:07:05 10° SE visible
02 Jul 2.9 03:47:02 13° SSE 03:47:02 13° SSE 03:47:55 10° SE visible
